Location: Lecco
(45.8566°N, 9.3977°E)
Time: 08:22:36
(UTC+02:00)

Altair - Pass Details

Date: 14 August 2020
Orbit: 1501 x 1682 km, 47.2° (Epoch: 25 September)

Event Time Altitude Azimuth Distance (km) Brightness Sun altitude
Rises 01:17:38 0° 197° (SSW) 4,855 - -29.8°
Reaches altitude 10° 01:21:23 10° 186° (S) 3,845 - -29.8°
Maximum altitude 01:29:08 28° 132° (SE) 2,661 - -29.9°
Exits shadow 01:30:36 27° 118° (ESE) 2,703 8.5 -29.9°
Drops below altitude 10° 01:36:40 10° 79° (E) 3,742 9.6 -29.8°
Sets 01:40:14 0° 69° (ENE) 4,703 10.4 -29.8°
